Location: Bidart
(43.4376°N, 1.5913°W)
Time: 13:50:23
(UTC+00:00)

ISS - Pass Details

Date: 21 January 2026
Orbit: 413 x 429 km, 51.6° (Epoch: 11 February)

Event Time Altitude Azimuth Distance (km) Brightness Sun altitude
Rises 19:11:35 0° 301° (WNW) 2,368 0.9 -23.0°
Reaches altitude 10° 19:13:57 10° 316° (NW) 1,507 -0.5 -23.5°
Enters shadow 19:15:13 17° 334° (NNW) 1,142 -1.4 -23.7°
